[[{"header":{"parameterUnit":"m.s-1","parameterCategory":1,"la1":30.2991,"la2":30.254,"lo1":-89.0895,"lo2":-89.0444,"dy":0.0017,"dx":0.0017,"nx":28,"ny":28,"refTime":"2025-11-10T03:00:00:Z","depth":0,"parameterNumber":2,"parameterNumberName":"U-component_of_WINDS"},"data":[0,0,0,0,0,0,0,0,0,0,0,0,0,0,0,0,0,0,0,0,0,0,0,0,0,0,0,0,0,0,0,0,0,0,0,0,0,0,0,0,0,0,0,0,0,0,0,0,0,0,0,0,0,0,0,0,0,0,-2.9723,-2.9724,0,-2.9857,-2.9859,-2.986,-2.981,-2.9807,-2.9804,-2.9801,-2.9937,-2.9943,-2.995,0,0,0,0,0,0,0,0,0,0,0,0,0,-2.9419,-2.9425,-2.9723,-2.9724,-2.9726,-2.9857,-2.9859,-2.9861,-2.981,-2.9807,-2.9803,-2.9799,-2.9935,-2.9943,-2.995,0,0,0,0,0,0,0,0,0,0,0,0,0,-2.9552,-2.9427,-2.9722,-2.9717,-2.9718,-2.9857,-2.9859,-2.9861,-2.9811,-2.9806,-2.9802,-2.9798,-2.9932,-2.9942,-2.9951,-3.0104,0,0,-2.9981,-2.9985,0,0,0,0,0,0,0,0,-2.9545,-2.9563,-2.9716,-2.9717,-2.9719,-2.9812,-2.9802,-2.9942,-2.9812,-2.9776,-2.9801,-2.9795,-2.9899,-2.9911,-2.9947,-3.011,-3.0116,-2.9982,-2.9988,-2.9992,-2.9995,0,0,0,0,0,0,0,-2.9535,-2.9557,-2.9776,-2.9718,-2.972,-2.9706,-2.972,-2.9828,-2.9861,-2.9778,-2.9775,-2.9792,-2.9899,-2.9937,-2.9949,-3.0118,-2.9982,-2.999,-2.9996,-3.0,-3.0409,-3.0414,0,0,0,0,0,0,-2.9526,-2.955,-2.9772,-2.978,-2.9619,-2.9716,-2.9731,-2.9787,-2.986,-2.9867,-2.9796,-2.9789,-2.9923,-2.9938,-2.9954,-3.0134,-2.9992,-3.0001,-3.0007,-3.0404,-3.041,-3.0416,0,0,0,0,0,0,-2.952,-2.9546,-2.9766,-2.9664,-2.9691,-2.9726,-2.9789,-2.9792,-2.983,-2.9873,-2.9879,-2.9829,-2.992,-2.994,-3.0066,-3.0138,-3.0006,-3.0014,-3.0398,-3.0406,-3.0413,-3.0498,0,0,0,0,0,0,-2.9511,-2.9544,-2.9604,-2.9666,-2.9697,-2.9877,-2.9793,-2.9798,-2.9847,-2.984,-2.9906,-2.9912,-2.9918,-3.0052,-3.0076,-3.0149,-3.0022,-3.0392,-3.0402,-3.0411,-3.0489,-3.0508,-3.0524,0,0,0,0,0,-2.9501,-2.9623,-2.9607,-2.9634,-2.9771,-2.9882,-2.9899,-2.9904,-2.9853,-2.9912,-2.9939,-2.991,-3.0127,-3.0065,-3.0092,-3.0169,-3.0387,-3.0399,-3.041,-3.0481,-3.0504,-3.0523,0,0,0,0,0,0,-2.9568,-2.9631,-2.9614,-2.976,-2.9816,-2.9873,-2.9947,-2.9928,-2.9999,-2.9989,-2.9991,-3.0006,-3.0135,-3.0165,-3.0095,-3.0319,-3.0249,-3.0267,-3.0294,-3.0316,-3.0333,-3.0323,-3.003,0,0,0,0,0,-2.96,-2.9685,-2.9735,-2.9859,-2.9888,-2.9913,-2.9961,-2.9959,-3.0017,-3.0041,-3.0077,-3.0134,-3.0214,-3.0267,-3.0344,-3.0493,-3.0505,-3.056,-3.0577,-3.0591,-3.0605,-3.0683,-3.0707,-3.0453,-3.0453,-3.0453,0,0,-2.9667,-2.9711,-2.9765,-2.9873,-2.9917,-3.0003,-2.9933,-3.0029,-3.0092,-3.0055,-3.0175,-3.0204,-3.0267,-3.0404,-3.0467,-3.0433,-3.0678,-3.0605,-3.0616,-3.0623,-3.0697,-3.0721,-3.0742,-3.046,-3.0459,-3.0458,0,0,-2.9832,-2.9876,-2.9982,-3.0026,-3.0092,-3.0108,-3.0133,-3.0193,-3.0211,-3.0332,-3.0305,-3.038,-3.052,-3.0565,-3.0606,-3.0786,-3.076,-3.0811,-3.0901,-3.0977,-3.0997,-3.1014,-3.1076,-3.1098,-3.0825,-3.0825,-3.0826,0,-2.9906,-3.0036,-3.0039,-3.0136,-3.0183,-3.0153,-3.026,-3.0303,-3.039,-3.0423,-3.0384,-3.0557,-3.0597,-3.0743,-3.0787,-3.0822,-3.085,-3.0803,-3.0994,-3.1011,-3.1028,-3.1086,-3.111,-3.0831,-3.083,-3.083,-3.0829,0,-3.0123,-3.0214,-3.0292,-3.0376,-3.0432,-3.0534,-3.055,-3.0607,-3.06,-3.0619,-3.0741,-3.0788,-3.0873,-3.0908,-3.0902,-3.1052,-3.1029,-3.0993,-3.0922,-3.1058,-3.1112,-3.1135,-3.0839,-3.0837,-3.0835,-3.0834,0,0,-3.0335,-3.0418,-3.0447,-3.0483,-3.0553,-3.0623,-3.0722,-3.0804,-3.0851,-3.0912,-3.0993,-3.1111,-3.1077,-3.1124,-3.1123,-3.119,-3.1326,-3.1145,-3.1146,-3.1174,-3.149,-3.1516,-3.1542,-3.131,-3.1314,-3.1318,-3.1484,0,-3.0503,-3.0677,-3.0682,-3.0841,-3.0922,-3.0894,-3.098,-3.1031,-3.1051,-3.1123,-3.1145,-3.1227,-3.1177,-3.1205,-3.127,-3.1295,-3.1389,-3.1284,-3.1383,-3.1387,-3.1366,-3.1571,-3.1599,-3.1754,-3.1506,-3.151,-3.1512,0,-3.0724,-3.0791,-3.0958,-3.1013,-3.1047,-3.1125,-3.1199,-3.1268,-3.1325,-3.1334,-3.1386,-3.1374,-3.1473,-3.1401,-3.1536,-3.1464,-3.1506,-3.1524,-3.153,-3.1538,-3.1456,-3.1582,-3.1804,-3.1826,-3.1547,-3.1544,-3.1541,0,-3.0858,-3.099,-3.1106,-3.1139,-3.1207,-3.1261,-3.1292,-3.1344,-3.1392,-3.1457,-3.1488,-3.1564,-3.1605,-3.1663,-3.1672,-3.1619,-3.1806,-3.1736,-3.1815,-3.1815,-3.1854,-3.1851,-3.2083,-3.1885,-3.1885,-3.1884,-3.1884,0,-3.1044,-3.1147,-3.1167,-3.1238,-3.1351,-3.1355,-3.1466,-3.1492,-3.1539,-3.1613,-3.1594,-3.1664,-3.1672,-3.1744,-3.1751,-3.186,-3.188,-3.1889,-3.1889,-3.1889,-3.1888,-3.1915,-3.1903,-3.1891,-3.1889,-3.1888,-3.1887,0,-3.1213,-3.1231,-3.1355,-3.1409,-3.1425,-3.1505,-3.1551,-3.1618,-3.1635,-3.173,-3.1752,-3.178,-3.1863,-3.1877,-3.1976,-3.1981,-3.211,-3.2101,-3.2091,-3.2089,-3.2166,-3.2158,-3.2422,-3.2455,-3.2238,-3.224,-3.2241,0,-3.133,-3.1408,-3.1469,-3.1518,-3.1551,-3.163,-3.1679,-3.1685,-3.1736,-3.1805,-3.1863,-3.1944,-3.2009,-3.2144,-3.2172,-3.2246,-3.2237,-3.2324,-3.2248,-3.2244,-3.2235,-3.2229,-3.2235,-3.2338,-3.234,-3.2342,-3.2344,0,-3.1534,-3.1539,-3.161,-3.1684,-3.1743,-3.1801,-3.1857,-3.1897,-3.191,-3.1969,-3.2053,-3.2104,-3.2204,-3.2284,-3.2357,-3.2387,-3.2367,-3.2368,-3.239,-3.2389,-3.2379,-3.2383,-3.2128,-3.2361,-3.236,-3.2358,-3.2357,-3.2357,-3.1679,-3.1745,-3.1798,-3.1878,-3.192,-3.1971,-3.2036,-3.2061,-3.2132,-3.2214,-3.2213,-3.2305,-3.2357,-3.2454,-3.2489,-3.256,-3.2532,-3.2564,-3.2572,-3.2579,-3.2585,-3.237,-3.2574,-3.2573,-3.2573,-3.2572,-3.2572,0,-3.1879,-3.1912,-3.1985,-3.2062,-3.2124,-3.21,-3.216,-3.2213,-3.2294,-3.2345,-3.2409,-3.2505,-3.2582,-3.2615,-3.269,-3.2741,-3.2733,-3.276,-3.2755,-3.2762,-3.2608,-3.258,-3.2765,-3.2765,-3.2765,-3.2765,-3.2765,-3.2764,-3.1991,-3.2101,-3.2112,-3.2242,-3.2274,-3.2364,-3.2399,-3.2446,-3.2486,-3.2594,-3.2658,-3.2679,-3.2722,-3.28,-3.2869,-3.2876,-3.2904,-3.2934,-3.2938,-3.2793,-3.2773,-3.2754,-3.2728,-3.2941,-3.2941,-3.3085,-3.3087,-3.3088]},{"header":{"parameterUnit":"m.s-1","parameterCategory":1,"la1":30.2991,"la2":30.254,"lo1":-89.0895,"lo2":-89.0444,"dy":0.0017,"dx":0.0017,"nx":28,"ny":28,"refTime":"2025-11-10T03:00:00:Z","depth":0,"parameterNumber":3,"parameterNumberName":"V-component_of_WINDS"},"data":[0,0,0,0,0,0,0,0,0,0,0,0,0,0,0,0,0,0,0,0,0,0,0,0,0,0,0,0,0,0,0,0,0,0,0,0,0,0,0,0,0,0,0,0,0,0,0,0,0,0,0,0,0,0,0,0,0,0,-4.607,-4.6071,0,-4.6169,-4.617,-4.6171,-4.6114,-4.6111,-4.6109,-4.6106,-4.6203,-4.6208,-4.6213,0,0,0,0,0,0,0,0,0,0,0,0,0,-4.5826,-4.5831,-4.607,-4.6071,-4.6073,-4.6169,-4.617,-4.6171,-4.6115,-4.6111,-4.6108,-4.6105,-4.6201,-4.6207,-4.6214,0,0,0,0,0,0,0,0,0,0,0,0,0,-4.5929,-4.5833,-4.607,-4.6056,-4.6056,-4.6168,-4.617,-4.6172,-4.6115,-4.6111,-4.6107,-4.6103,-4.6199,-4.6207,-4.6215,-4.6345,0,0,-4.6238,-4.6242,0,0,0,0,0,0,0,0,-4.5924,-4.5938,-4.6057,-4.6057,-4.6057,-4.6125,-4.612,-4.623,-4.6116,-4.6093,-4.6106,-4.6101,-4.618,-4.6189,-4.6217,-4.635,-4.6354,-4.6239,-4.6244,-4.6247,-4.6249,0,0,0,0,0,0,0,-4.5916,-4.5934,-4.6109,-4.6058,-4.6059,-4.6043,-4.6053,-4.614,-4.6158,-4.6094,-4.609,-4.6103,-4.6179,-4.6209,-4.6219,-4.6356,-4.6239,-4.6246,-4.625,-4.6253,-4.6597,-4.6602,0,0,0,0,0,0,-4.5911,-4.5928,-4.6106,-4.6112,-4.5979,-4.605,-4.6062,-4.6107,-4.6157,-4.6161,-4.6106,-4.61,-4.6198,-4.621,-4.6222,-4.6376,-4.6247,-4.6254,-4.6259,-4.6593,-4.6598,-4.6603,0,0,0,0,0,0,-4.5906,-4.5927,-4.6102,-4.6019,-4.604,-4.6059,-4.6111,-4.6111,-4.6141,-4.6167,-4.6169,-4.6134,-4.6195,-4.6211,-4.6315,-4.6379,-4.6258,-4.6265,-4.6588,-4.6594,-4.6601,-4.6687,0,0,0,0,0,0,-4.5899,-4.5926,-4.5978,-4.6021,-4.6045,-4.6195,-4.6115,-4.6116,-4.6155,-4.6148,-4.6193,-4.6197,-4.6193,-4.6303,-4.6322,-4.6387,-4.6271,-4.6582,-4.6591,-4.6599,-4.6678,-4.6696,-4.6711,0,0,0,0,0,-4.5891,-4.5998,-4.598,-4.6002,-4.611,-4.6199,-4.6212,-4.6208,-4.6161,-4.6211,-4.6227,-4.6195,-4.6369,-4.6314,-4.6335,-4.6403,-4.6578,-4.6588,-4.6598,-4.6671,-4.6692,-4.671,0,0,0,0,0,0,-4.5961,-4.6003,-4.5985,-4.6109,-4.6151,-4.6189,-4.6253,-4.6231,-4.6286,-4.6276,-4.6267,-4.6277,-4.6385,-4.6404,-4.6343,-4.6531,-4.6466,-4.648,-4.6514,-4.6534,-4.655,-4.6542,-4.6277,0,0,0,0,0,-4.5991,-4.6061,-4.6094,-4.62,-4.6222,-4.6234,-4.6273,-4.6266,-4.6308,-4.6325,-4.6348,-4.639,-4.6453,-4.6495,-4.6555,-4.6681,-4.6688,-4.6738,-4.6754,-4.6767,-4.6779,-4.6844,-4.6866,-4.6636,-4.6636,-4.6636,0,0,-4.6053,-4.6085,-4.613,-4.6215,-4.6247,-4.6318,-4.625,-4.6328,-4.638,-4.6337,-4.6436,-4.6454,-4.6499,-4.6614,-4.6665,-4.6633,-4.6844,-4.678,-4.679,-4.6795,-4.6857,-4.6879,-4.6898,-4.6643,-4.6642,-4.6641,0,0,-4.6203,-4.6236,-4.6327,-4.636,-4.6408,-4.6415,-4.6437,-4.6479,-4.6489,-4.6589,-4.6557,-4.6617,-4.6728,-4.676,-4.6791,-4.6951,-4.6922,-4.697,-4.7054,-4.7118,-4.7136,-4.7152,-4.7206,-4.7226,-4.6983,-4.6983,-4.6983,0,-4.6275,-4.6382,-4.6376,-4.6457,-4.6494,-4.6458,-4.6548,-4.658,-4.6646,-4.6671,-4.6634,-4.677,-4.6798,-4.6919,-4.6958,-4.6985,-4.7007,-4.6965,-4.7134,-4.715,-4.7164,-4.7216,-4.7237,-4.6989,-4.6988,-4.6987,-4.6987,0,-4.6466,-4.654,-4.6608,-4.6672,-4.6717,-4.6802,-4.6807,-4.6852,-4.684,-4.685,-4.695,-4.6982,-4.7047,-4.7075,-4.7064,-4.7193,-4.7172,-4.7135,-4.7069,-4.7192,-4.724,-4.726,-4.6996,-4.6994,-4.6993,-4.6991,0,0,-4.6663,-4.6722,-4.6747,-4.6774,-4.6824,-4.6881,-4.6963,-4.7027,-4.7065,-4.7111,-4.7178,-4.7271,-4.7236,-4.7272,-4.7264,-4.732,-4.7441,-4.7276,-4.7277,-4.7304,-4.7582,-4.7608,-4.7632,-4.7423,-4.7427,-4.743,-4.7578,0,-4.6814,-4.696,-4.6955,-4.709,-4.7157,-4.7123,-4.7194,-4.7231,-4.7242,-4.7299,-4.731,-4.7376,-4.7327,-4.7347,-4.7401,-4.7415,-4.7497,-4.7405,-4.7483,-4.7486,-4.7471,-4.7657,-4.7686,-4.7824,-4.7597,-4.76,-4.7602,0,-4.7011,-4.7063,-4.7204,-4.7242,-4.727,-4.7334,-4.7391,-4.7447,-4.7487,-4.7491,-4.7529,-4.7512,-4.7592,-4.7525,-4.7635,-4.7572,-4.7604,-4.7615,-4.762,-4.7626,-4.7551,-4.7666,-4.7868,-4.7888,-4.7633,-4.763,-4.7628,0,-4.7137,-4.7243,-4.7341,-4.7366,-4.7413,-4.7458,-4.748,-4.7516,-4.7554,-4.7603,-4.7627,-4.7685,-4.7716,-4.776,-4.7757,-4.7709,-4.7868,-4.7801,-4.7871,-4.7871,-4.7905,-4.7902,-4.8112,-4.7928,-4.7928,-4.7928,-4.7927,0,-4.7306,-4.7393,-4.7398,-4.7458,-4.7553,-4.7546,-4.764,-4.7657,-4.7689,-4.775,-4.7724,-4.7781,-4.7775,-4.7832,-4.7831,-4.792,-4.7935,-4.7938,-4.7937,-4.794,-4.7939,-4.7959,-4.7949,-4.7933,-4.7932,-4.7931,-4.793,0,-4.7463,-4.7471,-4.7574,-4.761,-4.7621,-4.7689,-4.7719,-4.7774,-4.7782,-4.7859,-4.7877,-4.7889,-4.7955,-4.7957,-4.8032,-4.8031,-4.8139,-4.8128,-4.8126,-4.8123,-4.8192,-4.8185,-4.8421,-4.8451,-4.8249,-4.8251,-4.8253,0,-4.757,-4.7636,-4.7678,-4.7718,-4.7742,-4.7805,-4.7844,-4.7839,-4.7879,-4.7929,-4.7978,-4.8041,-4.8091,-4.8196,-4.8211,-4.8267,-4.8256,-4.8335,-4.8264,-4.8264,-4.8254,-4.825,-4.8255,-4.8348,-4.835,-4.8352,-4.8353,0,-4.7757,-4.7756,-4.7813,-4.7871,-4.7918,-4.7963,-4.8004,-4.8037,-4.8037,-4.8083,-4.815,-4.8189,-4.8265,-4.8327,-4.8382,-4.8401,-4.8377,-4.8376,-4.8394,-4.8398,-4.8393,-4.8394,-4.8161,-4.837,-4.8368,-4.8367,-4.8366,-4.8366,-4.789,-4.7946,-4.7985,-4.8048,-4.8079,-4.8118,-4.8171,-4.8185,-4.8242,-4.8304,-4.8297,-4.837,-4.8406,-4.8477,-4.8501,-4.8557,-4.853,-4.8558,-4.8564,-4.8571,-4.8577,-4.8385,-4.8567,-4.8567,-4.8567,-4.8566,-4.8566,0,-4.8074,-4.8096,-4.8155,-4.8214,-4.8263,-4.8237,-4.8281,-4.8323,-4.8388,-4.8425,-4.8474,-4.8549,-4.8609,-4.8628,-4.8685,-4.8726,-4.8716,-4.8741,-4.8737,-4.8741,-4.86,-4.8577,-4.8748,-4.8748,-4.8748,-4.8748,-4.8748,-4.8748,-4.8175,-4.8268,-4.8272,-4.8378,-4.84,-4.8472,-4.8499,-4.8534,-4.8562,-4.8648,-4.8697,-4.871,-4.8738,-4.8797,-4.8849,-4.8853,-4.8874,-4.8904,-4.8903,-4.877,-4.8751,-4.8734,-4.8712,-4.8909,-4.8909,-4.9039,-4.904,-4.9041]}]]